Time,TemperatureF,DewpointF,PressureIn,WindDirection,WindDirectionDegrees,WindSpeedMPH,WindSpeedGustMPH,Humidity,HourlyPrecipIn,Conditions,Clouds,dailyrainin,SoftwareType,DateUTC
2013-07-03 00:14:00,64.2,63.0,30.21,SSW,193,1.0,2.0,95,0.00,,,0.00,weatherlink.com 1.10,2013-07-03 04:14:00,
2013-07-03 00:29:00,63.9,63.0,30.20,SSE,150,1.0,2.0,96,0.00,,,0.00,weatherlink.com 1.10,2013-07-03 04:29:00,
2013-07-03 00:44:00,64.1,63.0,30.20,SSE,150,0.0,2.0,96,0.00,,,0.00,weatherlink.com 1.10,2013-07-03 04:44:00,
2013-07-03 00:59:00,63.9,63.0,30.19,SSE,154,1.0,2.0,95,0.00,,,0.00,weatherlink.com 1.10,2013-07-03 04:59:00,
2013-07-03 01:14:00,63.5,62.0,30.19,SSE,152,1.0,2.0,94,0.00,,,0.00,weatherlink.com 1.10,2013-07-03 05:14:00,
2013-07-03 01:29:00,63.4,62.0,30.20,SSE,150,0.0,2.0,95,0.00,,,0.00,weatherlink.com 1.10,2013-07-03 05:29:00,
2013-07-03 01:59:00,63.0,62.0,30.20,SSE,155,1.0,2.0,95,0.00,,,0.00,weatherlink.com 1.10,2013-07-03 05:59:00,
2013-07-03 02:29:00,63.1,62.0,30.19,SSE,155,0.0,2.0,96,0.00,,,0.00,weatherlink.com 1.10,2013-07-03 06:29:00,
2013-07-03 02:44:00,63.0,62.0,30.19,SSE,155,1.0,2.0,95,0.00,,,0.00,weatherlink.com 1.10,2013-07-03 06:44:00,
2013-07-03 03:14:00,63.1,62.0,30.19,SSE,155,1.0,1.0,96,0.00,,,0.00,weatherlink.com 1.10,2013-07-03 07:14:00,
2013-07-03 03:30:00,62.8,61.0,30.19,SSE,155,0.0,0.0,95,0.00,,,0.00,weatherlink.com 1.10,2013-07-03 07:30:00,
2013-07-03 03:59:00,62.5,61.0,30.19,SSE,154,0.0,1.0,95,0.00,,,0.00,weatherlink.com 1.10,2013-07-03 07:59:00,
2013-07-03 04:14:00,62.5,61.0,30.19,SSE,153,0.0,0.0,95,0.00,,,0.00,weatherlink.com 1.10,2013-07-03 08:14:00,
2013-07-03 04:29:00,62.6,61.0,30.19,SSE,154,0.0,0.0,95,0.00,,,0.00,weatherlink.com 1.10,2013-07-03 08:29:00,
2013-07-03 04:44:00,62.5,61.0,30.19,SSE,153,0.0,0.0,96,0.00,,,0.00,weatherlink.com 1.10,2013-07-03 08:44:00,
2013-07-03 05:15:00,62.7,62.0,30.20,SSE,154,0.0,0.0,96,0.00,,,0.00,weatherlink.com 1.10,2013-07-03 09:15:00,
2013-07-03 05:30:00,62.8,62.0,30.20,SSE,153,0.0,0.0,96,0.00,,,0.00,weatherlink.com 1.10,2013-07-03 09:30:00,
2013-07-03 05:45:00,62.9,62.0,30.21,SSE,153,0.0,0.0,96,0.00,,,0.00,weatherlink.com 1.10,2013-07-03 09:45:00,
2013-07-03 06:15:00,63.1,62.0,30.21,SSE,153,0.0,0.0,96,0.01,,,0.01,weatherlink.com 1.10,2013-07-03 10:15:00,
2013-07-03 06:30:00,63.3,62.0,30.21,SSE,154,0.0,0.0,96,0.02,,,0.02,weatherlink.com 1.10,2013-07-03 10:30:00,
2013-07-03 07:00:00,63.4,63.0,30.21,SSE,154,0.0,0.0,97,0.02,,,0.02,weatherlink.com 1.10,2013-07-03 11:00:00,
2013-07-03 07:15:00,63.4,63.0,30.21,South,184,0.0,1.0,97,0.01,,,0.02,weatherlink.com 1.10,2013-07-03 11:15:00,
2013-07-03 07:30:00,63.7,63.0,30.22,SSE,148,0.0,0.0,97,0.00,,,0.02,weatherlink.com 1.10,2013-07-03 11:30:00,
2013-07-03 07:45:00,64.0,63.0,30.22,SSE,148,0.0,0.0,97,0.00,,,0.02,weatherlink.com 1.10,2013-07-03 11:45:00,
2013-07-03 08:30:00,64.1,63.0,30.23,SSE,148,0.0,0.0,96,0.02,,,0.04,weatherlink.com 1.10,2013-07-03 12:30:00,
2013-07-03 08:45:00,64.3,64.0,30.24,SSE,148,0.0,0.0,97,0.06,,,0.08,weatherlink.com 1.10,2013-07-03 12:45:00,
2013-07-03 09:00:00,64.3,64.0,30.24,SSE,158,0.0,0.0,97,0.14,,,0.17,weatherlink.com 1.10,2013-07-03 13:00:00,
2013-07-03 09:15:00,64.0,63.0,30.24,SW,219,0.0,0.0,97,0.31,,,0.34,weatherlink.com 1.10,2013-07-03 13:15:00,
2013-07-03 09:45:00,65.2,64.0,30.24,SW,219,0.0,0.0,97,0.27,,,0.35,weatherlink.com 1.10,2013-07-03 13:45:00,
2013-07-03 10:00:00,66.3,66.0,30.24,SW,219,0.0,0.0,98,0.18,,,0.35,weatherlink.com 1.10,2013-07-03 14:00:00,
2013-07-03 10:30:00,66.5,66.0,30.24,SW,219,0.0,0.0,97,0.00,,,0.35,weatherlink.com 1.10,2013-07-03 14:30:00,
2013-07-03 10:45:00,66.1,65.0,30.24,North,8,0.0,0.0,97,0.01,,,0.36,weatherlink.com 1.10,2013-07-03 14:45:00,
2013-07-03 11:00:00,65.8,65.0,30.25,North,9,0.0,0.0,97,0.09,,,0.44,weatherlink.com 1.10,2013-07-03 15:00:00,
2013-07-03 11:30:00,65.6,65.0,30.25,NE,49,0.0,0.0,97,0.25,,,0.60,weatherlink.com 1.10,2013-07-03 15:30:00,
2013-07-03 11:45:00,65.6,65.0,30.25,East,82,1.0,1.0,97,0.38,,,0.74,weatherlink.com 1.10,2013-07-03 15:45:00,
2013-07-03 12:15:00,65.8,65.0,30.25,NNE,14,0.0,2.0,98,0.26,,,0.86,weatherlink.com 1.10,2013-07-03 16:15:00,
2013-07-03 12:30:00,66.5,66.0,30.25,NNE,15,0.0,0.0,98,0.28,,,0.88,weatherlink.com 1.10,2013-07-03 16:30:00,
2013-07-03 13:00:00,67.5,67.0,30.24,NNE,15,0.0,0.0,97,0.07,,,0.89,weatherlink.com 1.10,2013-07-03 17:00:00,
2013-07-03 13:15:00,66.9,66.0,30.23,NNE,14,0.0,0.0,97,0.04,,,0.90,weatherlink.com 1.10,2013-07-03 17:15:00,
2013-07-03 13:30:00,66.7,66.0,30.23,South,183,0.0,0.0,97,0.07,,,0.95,weatherlink.com 1.10,2013-07-03 17:30:00,
2013-07-03 13:45:00,66.8,66.0,30.23,South,190,0.0,2.0,97,0.13,,,1.01,weatherlink.com 1.10,2013-07-03 17:45:00,
2013-07-03 14:00:00,67.1,66.0,30.23,South,190,0.0,0.0,97,0.14,,,1.03,weatherlink.com 1.10,2013-07-03 18:00:00,
2013-07-03 14:15:00,67.2,66.0,30.23,South,190,0.0,1.0,97,0.14,,,1.04,weatherlink.com 1.10,2013-07-03 18:15:00,
2013-07-03 14:30:00,67.5,67.0,30.23,South,187,0.0,0.0,97,0.09,,,1.04,weatherlink.com 1.10,2013-07-03 18:30:00,
2013-07-03 14:45:00,67.3,67.0,30.23,South,188,0.0,0.0,97,0.03,,,1.04,weatherlink.com 1.10,2013-07-03 18:45:00,
2013-07-03 15:01:00,65.4,64.0,30.24,SSW,198,1.0,1.0,94,0.04,,,1.07,weatherlink.com 1.10,2013-07-03 19:01:00,
2013-07-03 15:15:00,64.3,63.0,30.24,SSE,153,0.0,3.0,95,0.04,,,1.08,weatherlink.com 1.10,2013-07-03 19:15:00,
2013-07-03 15:30:00,63.6,62.0,30.25,SW,222,0.0,3.0,94,0.06,,,1.10,weatherlink.com 1.10,2013-07-03 19:30:00,
2013-07-03 15:46:00,62.7,62.0,30.25,East,89,0.0,1.0,96,0.30,,,1.34,weatherlink.com 1.10,2013-07-03 19:46:00,
2013-07-03 16:01:00,62.4,62.0,30.25,East,89,0.0,1.0,97,0.45,,,1.53,weatherlink.com 1.10,2013-07-03 20:01:00,
2013-07-03 16:16:00,62.3,62.0,30.26,ESE,111,0.0,1.0,97,0.59,,,1.67,weatherlink.com 1.10,2013-07-03 20:16:00,
2013-07-03 16:46:00,61.3,60.0,30.27,West,274,1.0,3.0,96,0.38,,,1.73,weatherlink.com 1.10,2013-07-03 20:46:00,
2013-07-03 17:01:00,61.2,60.0,30.28,WSW,257,0.0,0.0,97,0.22,,,1.75,weatherlink.com 1.10,2013-07-03 21:01:00,
2013-07-03 17:16:00,61.1,60.0,30.29,WSW,257,0.0,0.0,97,0.10,,,1.77,weatherlink.com 1.10,2013-07-03 21:16:00,
2013-07-03 17:46:00,60.8,60.0,30.30,NNE,23,1.0,2.0,97,0.17,,,1.90,weatherlink.com 1.10,2013-07-03 21:46:00,
2013-07-03 18:01:00,60.4,60.0,30.29,NNW,345,0.0,1.0,97,0.21,,,1.96,weatherlink.com 1.10,2013-07-03 22:01:00,
2013-07-03 18:16:00,60.2,59.0,30.29,NNW,345,0.0,0.0,97,0.24,,,2.01,weatherlink.com 1.10,2013-07-03 22:16:00,
2013-07-03 18:31:00,60.1,60.0,30.29,NNW,345,0.0,0.0,98,0.26,,,2.10,weatherlink.com 1.10,2013-07-03 22:31:00,
2013-07-03 18:46:00,60.1,60.0,30.29,NNW,345,0.0,0.0,98,0.29,,,2.19,weatherlink.com 1.10,2013-07-03 22:46:00,
2013-07-03 19:01:00,60.1,60.0,30.29,NNW,345,0.0,0.0,98,0.30,,,2.26,weatherlink.com 1.10,2013-07-03 23:01:00,
2013-07-03 19:16:00,60.1,60.0,30.29,NNW,345,0.0,0.0,98,0.28,,,2.29,weatherlink.com 1.10,2013-07-03 23:16:00,
2013-07-03 19:46:00,60.2,60.0,30.29,NNW,345,0.0,1.0,98,0.14,,,2.33,weatherlink.com 1.10,2013-07-03 23:46:00,
2013-07-03 20:16:00,60.0,60.0,30.30,WSW,250,1.0,1.0,98,0.10,,,2.40,weatherlink.com 1.10,2013-07-04 00:16:00,
2013-07-03 20:31:00,59.9,59.0,30.30,WSW,250,0.0,0.0,98,0.11,,,2.43,weatherlink.com 1.10,2013-07-04 00:31:00,
2013-07-03 20:46:00,59.9,59.0,30.30,WSW,250,0.0,0.0,98,0.12,,,2.45,weatherlink.com 1.10,2013-07-04 00:46:00,
2013-07-03 21:16:00,59.9,59.0,30.30,WSW,250,0.0,0.0,98,0.11,,,2.51,weatherlink.com 1.10,2013-07-04 01:16:00,
2013-07-03 22:01:00,59.7,59.0,30.29,WSW,250,0.0,1.0,98,0.00,,,2.51,weatherlink.com 1.10,2013-07-04 02:01:00,
2013-07-03 22:46:00,59.6,59.0,30.31,WSW,250,0.0,0.0,98,0.00,,,2.51,weatherlink.com 1.10,2013-07-04 02:46:00,
2013-07-03 23:01:00,59.7,59.0,30.32,WSW,250,0.0,0.0,98,0.00,,,2.51,weatherlink.com 1.10,2013-07-04 03:01:00,
2013-07-03 23:16:00,59.9,59.0,30.32,WSW,250,0.0,0.0,98,0.00,,,2.51,weatherlink.com 1.10,2013-07-04 03:16:00,
2013-07-03 23:31:00,59.8,59.0,30.32,WSW,250,0.0,0.0,98,0.00,,,2.51,weatherlink.com 1.10,2013-07-04 03:31:00,
2013-07-03 23:46:00,59.9,59.0,30.32,WSW,250,0.0,0.0,98,0.00,,,2.51,weatherlink.com 1.10,2013-07-04 03:46:00,